マシェク彗星

C/2024 Y1 ( Masek )

English version
Home page
Updated on May 2, 2025

---------------------------------------------------------------------

・ プロフィール

発見日 2024年12月25日
発見光度 15.3等
発見者 Martin Masek (Liberec, Czech Republic)

・ 写真集

・ 軌道要素

Epoch 2025 May 5.0 TT = JDT 2460800.5
T 2024 Nov. 26.86442 TT                                 Pike
q   0.8223395            (2000.0)            P               Q
z  +0.0161289      Peri.  238.14250     +0.53690267     -0.11773668
 +/-0.0008858      Node   112.54339     -0.01424737     +0.98880740
e   0.9867365      Incl.   64.75626     -0.84352388     -0.09164061
From 98 observations 2024 Dec. 25-2025 Jan. 19, mean residual 0".6.

・ 星図

・ 光度変化

        m1 = 14.5 + 5 logΔ + 10.0 log r

---------------------------------------------------------------------

軌道要素はM.P.E.C. 2025-C143に掲載されたものです。
星図はステラナビゲータ Ver.11 (アストロアーツ) で作成したものです。
光度グラフはComet for Windowsで作成したものです。

---------------------------------------------------------------------

Copyright(C) Seiichi Yoshida (comet@aerith.net). All rights reserved.